EA1QW Weather Reports


Display with metric or nautical units.
time (UTC)temp
F
wind
direction
speed
MPH
gust
MPH
rain 1hr
in
rain 24hr
in
rain mn
in
humidity
%
barometer
mb
20180721193518 68 198 0.0 2.0 0.00 0.08 0.02 90 1017.0
20180721193017 68 198 0.0 5.0 0.00 0.08 0.02 90 1016.9
20180721192518 68 198 1.0 5.0 0.00 0.08 0.02 90 1016.9
20180721192029 68 193 2.0 4.0 0.00 0.08 0.02 90 1016.9
20180721191524 68 222 1.0 4.0 0.00 0.08 0.02 90 1016.9
20180721191023 68 223 1.0 4.0 0.00 0.08 0.02 90 1016.9
20180721190526 68 223 0.0 3.0 0.00 0.08 0.02 91 1016.9
20180721190025 68 223 1.0 3.0 0.00 0.08 0.02 90 1016.9
20180721185531 68 223 1.0 3.0 0.00 0.08 0.02 90 1016.8
20180721185029 68 223 0.0 2.0 0.00 0.08 0.02 90 1016.8
20180721184517 68 223 0.0 0.0 0.00 0.08 0.02 90 1016.8
20180721184019 68 223 0.0 0.0 0.00 0.08 0.02 90 1016.8
20180721183517 68 223 0.0 0.0 0.04 0.08 0.02 90 1016.8
20180721183032 68 223 0.0 1.0 0.04 0.08 0.02 90 1016.8
20180721182530 68 223 0.0 3.0 0.04 0.08 0.02 90 1016.7
20180721182027 68 223 1.0 4.0 0.04 0.08 0.02 90 1016.7
20180721181525 68 224 0.0 8.0 0.04 0.08 0.02 90 1016.7
20180721181029 68 221 4.0 8.0 0.04 0.08 0.02 90 1016.9
20180721180518 68 223 3.0 6.0 0.04 0.08 0.02 90 1016.9
20180721180015 68 198 2.0 6.0 0.04 0.08 0.02 90 1016.8
20180721175524 68 236 0.0 7.0 0.04 0.08 0.02 90 1016.8
20180721175022 68 235 2.0 6.0 0.04 0.08 0.02 90 1016.8
20180721174519 68 233 4.0 6.0 0.04 0.08 0.02 89 1016.9
20180721174017 68 196 2.0 7.0 0.04 0.08 0.02 89 1016.9
20180721173519 68 238 3.0 10.0 0.00 0.04 0.01 88 1016.9
20180721173017 68 267 3.0 10.0 0.00 0.04 0.01 87 1016.9
20180721172520 68 262 4.0 7.0 0.00 0.04 0.01 86 1016.9
20180721172017 69 286 4.0 7.0 0.00 0.04 0.01 86 1016.9
20180721171518 69 265 2.0 7.0 0.00 0.04 0.01 86 1016.9
20180721171031 69 271 4.0 6.0 0.00 0.04 0.01 86 1016.9
20180721170529 69 264 0.0 8.0 0.00 0.04 0.01 85 1016.9
20180721170025 69 246 4.0 11.0 0.00 0.04 0.01 85 1016.9
20180721165524 69 281 4.0 9.0 0.00 0.04 0.01 84 1016.9
20180721165024 69 274 4.0 10.0 0.00 0.04 0.01 84 1016.9
20180721164519 69 281 5.0 9.0 0.00 0.04 0.01 84 1016.9
20180721164018 69 276 4.0 11.0 0.00 0.04 0.01 83 1016.9
20180721163518 69 254 6.0 11.0 0.00 0.04 0.01 83 1016.9
20180721163035 69 251 5.0 9.0 0.00 0.04 0.01 83 1016.9
20180721162517 70 261 4.0 7.0 0.00 0.04 0.01 82 1016.9
20180721162029 70 224 3.0 9.0 0.00 0.04 0.01 82 1016.9
20180721161532 70 251 3.0 9.0 0.00 0.04 0.01 82 1016.9
20180721161033 70 242 5.0 9.0 0.00 0.04 0.01 82 1016.9
20180721160516 70 283 3.0 9.0 0.00 0.04 0.01 82 1016.9
20180721160032 70 239 4.0 9.0 0.00 0.04 0.01 81 1016.9
20180721155532 70 251 2.0 7.0 0.00 0.04 0.01 81 1016.9
20180721155026 70 263 3.0 11.0 0.00 0.04 0.01 82 1016.9
20180721154528 70 277 5.0 11.0 0.00 0.04 0.01 82 1016.9
20180721154027 69 244 5.0 10.0 0.00 0.04 0.01 82 1017.0
20180721153528 69 213 5.0 9.0 0.00 0.04 0.01 83 1017.0
20180721153022 69 256 5.0 8.0 0.00 0.04 0.01 83 1017.0
20180721152522 69 269 4.0 10.0 0.00 0.04 0.01 83 1017.0
20180721152022 69 263 5.0 10.0 0.00 0.04 0.01 83 1017.0
20180721151519 70 265 1.0 6.0 0.00 0.04 0.01 82 1017.0
20180721151022 70 217 0.0 3.0 0.00 0.04 0.01 82 1017.0
20180721150526 70 217 1.0 4.0 0.00 0.04 0.01 81 1017.0
20180721150018 70 217 1.0 4.0 0.00 0.04 0.01 81 1017.0
20180721145517 70 218 1.0 6.0 0.00 0.04 0.01 80 1017.0
20180721145030 70 172 1.0 6.0 0.00 0.04 0.01 80 1017.0
20180721144529 70 238 2.0 6.0 0.00 0.04 0.01 81 1017.0
20180721144029 70 192 2.0 6.0 0.00 0.04 0.01 80 1017.0
20180721143529 69 194 2.0 6.0 0.00 0.04 0.01 81 1017.0
20180721143025 70 181 2.0 5.0 0.00 0.04 0.01 81 1017.0
20180721142526 69 178 2.0 4.0 0.00 0.04 0.01 81 1017.2
20180721142030 69 180 0.0 5.0 0.00 0.04 0.01 82 1017.2
20180721141532 69 180 1.0 5.0 0.00 0.04 0.01 81 1017.2
20180721141026 69 179 0.0 5.0 0.00 0.04 0.01 81 1017.2
20180721140529 69 178 1.0 5.0 0.00 0.04 0.01 82 1017.2
20180721140018 69 191 1.0 5.0 0.00 0.04 0.01 83 1017.3
20180721135535 69 191 2.0 5.0 0.00 0.04 0.01 82 1017.3
20180721135030 69 180 2.0 5.0 0.00 0.04 0.01 83 1017.3
20180721134524 68 180 3.0 5.0 0.00 0.04 0.01 82 1017.3
20180721134035 68 164 1.0 7.0 0.00 0.04 0.01 83 1017.4
20180721133518 68 121 1.0 7.0 0.00 0.04 0.01 82 1017.4
20180721133014 68 184 2.0 7.0 0.00 0.04 0.01 81 1017.4
20180721132534 69 176 3.0 6.0 0.00 0.04 0.01 79 1017.4
20180721132026 69 177 2.0 5.0 0.00 0.04 0.01 79 1017.4
20180721131528 69 317 0.0 1.0 0.00 0.04 0.01 78 1017.4
20180721131024 69 317 0.0 1.0 0.00 0.04 0.01 78 1017.4
20180721130524 69 292 0.0 0.0 0.00 0.04 0.01 76 1017.4
20180721130019 69 292 0.0 0.0 0.00 0.04 0.01 78 1017.4
20180721125517 69 292 0.0 0.0 0.00 0.04 0.01 77 1017.4
20180721125032 69 292 0.0 0.0 0.00 0.04 0.01 76 1017.4
20180721124526 69 292 0.0 0.0 0.00 0.04 0.01 77 1017.4
20180721124027 69 292 0.0 0.0 0.00 0.04 0.01 78 1017.5
20180721123525 69 292 0.0 0.0 0.00 0.04 0.01 76 1017.5
20180721123027 69 292 0.0 0.0 0.00 0.04 0.01 77 1017.5
20180721122527 69 292 0.0 2.0 0.00 0.04 0.01 76 1017.5
20180721122027 69 292 0.0 3.0 0.00 0.04 0.01 75 1017.5
20180721121527 69 292 1.0 3.0 0.00 0.04 0.01 76 1017.5
20180721121025 69 292 0.0 2.0 0.00 0.04 0.01 76 1017.5
20180721120523 69 292 0.0 2.0 0.00 0.04 0.01 77 1017.5
20180721120018 69 292 1.0 4.0 0.00 0.04 0.01 77 1017.5
20180721115535 69 292 1.0 4.0 0.00 0.04 0.01 77 1017.5
20180721115035 69 254 3.0 4.0 0.00 0.04 0.01 77 1017.5
20180721114516 69 215 1.0 3.0 0.00 0.04 0.01 78 1017.6
20180721114032 69 215 0.0 3.0 0.00 0.04 0.01 78 1017.6
20180721113534 69 215 1.0 5.0 0.00 0.04 0.01 78 1017.6
20180721113032 69 221 1.0 4.0 0.00 0.04 0.01 79 1017.6
20180721112517 69 222 0.0 3.0 0.00 0.04 0.01 79 1017.7
20180721112018 69 222 0.0 5.0 0.00 0.04 0.01 79 1017.7
20180721111516 68 222 2.0 5.0 0.00 0.04 0.01 76 1017.6
20180721111032 68 195 3.0 6.0 0.00 0.04 0.01 76 1017.6
20180721110535 69 203 3.0 6.0 0.00 0.04 0.01 77 1017.6
20180721110032 69 216 2.0 7.0 0.00 0.04 0.01 79 1017.6
20180721105528 68 232 3.0 8.0 0.00 0.04 0.01 77 1017.5
20180721105026 69 267 4.0 7.0 0.00 0.04 0.01 78 1017.5
20180721104529 69 247 1.0 6.0 0.00 0.04 0.01 80 1017.5
20180721104029 69 217 1.0 7.0 0.00 0.04 0.01 80 1017.5
20180721103528 67 257 3.0 7.0 0.00 0.04 0.01 82 1017.5
20180721103027 67 194 2.0 6.0 0.00 0.04 0.01 82 1017.5
20180721102534 67 219 1.0 10.0 0.00 0.04 0.01 83 1017.5
20180721102031 66 198 4.0 8.0 0.00 0.04 0.01 82 1017.5
20180721101529 67 198 2.0 6.0 0.00 0.04 0.01 83 1017.5
20180721101026 66 193 2.0 8.0 0.00 0.04 0.01 83 1017.5
20180721100524 66 234 3.0 8.0 0.00 0.04 0.01 83 1017.5
20180721100018 66 197 3.0 7.0 0.00 0.04 0.01 84 1017.5
20180721095518 66 223 2.0 8.0 0.00 0.04 0.01 85 1017.5
20180721095034 66 227 4.0 8.0 0.00 0.04 0.01 84 1017.5
20180721094533 66 220 4.0 8.0 0.00 0.04 0.01 84 1017.5
20180721094031 66 211 3.0 8.0 0.00 0.04 0.01 84 1017.4
20180721093531 66 215 4.0 10.0 0.00 0.04 0.01 83 1017.4
20180721093032 66 172 3.0 10.0 0.00 0.04 0.01 84 1017.4
20180721092531 66 254 2.0 6.0 0.00 0.04 0.01 85 1017.5
20180721092017 66 251 3.0 9.0 0.00 0.04 0.01 84 1017.5
20180721091522 66 227 4.0 9.0 0.00 0.04 0.01 84 1017.5
20180721091032 66 245 4.0 8.0 0.00 0.04 0.01 84 1017.5
20180721090531 66 190 2.0 6.0 0.00 0.04 0.01 85 1017.5
20180721090031 66 196 1.0 4.0 0.00 0.16 0.01 85 1017.5
20180721085533 66 196 0.0 6.0 0.00 0.16 0.01 86 1017.5
20180721085013 65 196 2.0 6.0 0.00 0.16 0.01 86 1017.5
20180721084532 65 196 2.0 6.0 0.00 0.16 0.01 86 1017.5
20180721084033 65 184 3.0 6.0 0.00 0.16 0.01 86 1018.0
20180721083532 65 196 0.0 4.0 0.00 0.16 0.01 88 1018.0
20180721083033 65 196 1.0 5.0 0.00 0.16 0.01 88 1018.0
20180721082531 65 185 2.0 5.0 0.00 0.16 0.01 89 1018.0
20180721082028 64 182 1.0 6.0 0.00 0.16 0.01 90 1018.0
20180721081527 64 202 3.0 6.0 0.00 0.16 0.01 91 1018.0
20180721081029 63 201 0.0 6.0 0.00 0.16 0.01 92 1018.0
20180721080527 63 201 3.0 6.0 0.00 0.16 0.01 92 1018.0
20180721080024 63 179 4.0 6.0 0.00 0.31 0.01 93 1018.0
20180721075527 62 225 1.0 6.0 0.00 0.31 0.01 94 1018.0
20180721075030 62 225 3.0 6.0 0.00 0.31 0.01 95 1018.0
20180721074531 62 221 3.0 7.0 0.00 0.31 0.01 95 1018.0
20180721074029 62 229 1.0 7.0 0.00 0.31 0.01 96 1018.0
20180721073532 62 188 1.0 6.0 0.00 0.31 0.01 96 1018.0
20180721073027 61 203 2.0 5.0 0.00 0.31 0.01 96 1018.0
20180721072523 61 208 1.0 5.0 0.00 0.31 0.01 96 1018.0
20180721072026 61 206 1.0 5.0 0.00 0.31 0.01 96 1018.0
20180721071521 61 210 2.0 5.0 0.00 0.31 0.01 96 1018.0
20180721071018 61 209 2.0 6.0 0.00 0.31 0.01 96 1018.0
20180721070514 61 204 2.0 7.0 0.00 0.31 0.01 97 1018.0
20180721070034 60 203 2.0 7.0 0.00 0.31 0.01 97 1018.0
20180721065531 60 204 2.0 5.0 0.00 0.31 0.01 97 1018.1
20180721065029 60 215 1.0 6.0 0.00 0.31 0.01 97 1018.1
20180721064526 60 214 2.0 6.0 0.00 0.31 0.01 97 1018.1
20180721064035 60 215 1.0 6.0 0.00 0.31 0.01 97 1018.2
20180721063527 60 215 1.0 6.0 0.00 0.31 0.01 97 1018.2
20180721063021 60 212 3.0 5.0 0.00 0.31 0.01 97 1018.1
20180721062534 59 222 2.0 4.0 0.00 0.31 0.01 97 1018.1
20180721062034 59 223 1.0 4.0 0.00 0.31 0.01 97 1018.1
20180721061527 59 223 1.0 3.0 0.00 0.31 0.01 97 1018.1
20180721061023 59 223 0.0 0.0 0.00 0.31 0.01 97 1018.1
20180721060518 58 223 0.0 0.0 0.00 0.31 0.01 97 1018.1
20180721060013 58 223 0.0 0.0 0.00 0.55 0.01 97 1018.3
20180721055520 58 223 0.0 0.0 0.00 0.55 0.01 97 1018.3
20180721055016 57 223 0.0 0.0 0.00 0.55 0.01 97 1018.3
20180721054518 57 223 0.0 0.0 0.00 0.55 0.01 97 1018.2
20180721054015 57 223 0.0 0.0 0.00 0.55 0.01 97 1018.2
20180721053519 57 223 0.0 0.0 0.00 0.55 0.01 97 1018.2
20180721053015 57 223 0.0 0.0 0.00 0.55 0.01 97 1018.3
20180721052520 57 223 0.0 0.0 0.00 0.55 0.01 97 1018.3
20180721052018 57 223 0.0 0.0 0.00 0.55 0.01 97 1018.3
20180721051523 57 223 0.0 0.0 0.00 0.55 0.01 97 1018.3
20180721051021 57 223 0.0 0.0 0.00 0.55 0.01 97 1018.4
20180721050523 57 223 0.0 0.0 0.00 0.55 0.01 97 1018.4
20180721050017 57 223 0.0 0.0 0.00 0.98 0.01 97 1018.5
20180721045524 57 223 0.0 0.0 0.00 0.98 0.01 96 1018.5
20180721045022 57 223 0.0 0.0 0.00 0.98 0.01 96 1018.5
20180721044524 57 223 0.0 0.0 0.00 0.98 0.01 96 1018.5
20180721044024 57 223 0.0 0.0 0.00 0.98 0.01 96 1018.5
20180721043523 58 223 0.0 0.0 0.00 0.98 0.01 96 1018.5
20180721043021 58 223 0.0 0.0 0.00 0.98 0.01 96 1018.5
20180721042522 58 223 0.0 0.0 0.00 0.98 0.01 96 1018.5
20180721042023 58 223 0.0 0.0 0.00 0.98 0.01 96 1018.5
20180721041525 58 223 0.0 0.0 0.00 0.98 0.01 96 1018.5
20180721041023 58 223 0.0 0.0 0.04 0.98 0.01 96 1018.5
20180721040528 58 223 0.0 0.0 0.04 0.98 0.01 96 1018.5
20180721040023 58 223 0.0 0.0 0.04 1.22 0.01 96 1018.5
20180721035524 58 223 0.0 0.0 0.04 1.22 0.01 96 1018.4
20180721035025 58 223 0.0 0.0 0.04 1.22 0.01 96 1018.4
20180721034527 58 223 0.0 0.0 0.04 1.22 0.01 96 1018.4
20180721034031 58 223 0.0 0.0 0.04 1.22 0.01 96 1018.5
20180721033530 58 223 0.0 0.0 0.04 1.22 0.01 96 1018.5
20180721033028 58 223 0.0 0.0 0.04 1.22 0.01 96 1018.5
20180721032530 58 223 0.0 0.0 0.04 1.22 0.01 96 1018.5
20180721032031 58 223 0.0 0.0 0.04 1.22 0.01 96 1018.5
20180721031513 58 223 0.0 0.0 0.04 1.22 0.01 96 1018.6
20180721031031 58 223 0.0 0.0 0.00 1.18 0.00 96 1018.6
20180721030530 58 223 0.0 0.0 0.00 1.18 0.00 96 1018.6
20180721030026 58 223 0.0 0.0 0.00 1.30 0.00 96 1018.6
20180721025534 58 223 0.0 0.0 0.00 1.30 0.00 96 1018.6
20180721025031 58 223 0.0 0.0 0.00 1.30 0.00 96 1018.6
20180721024517 58 223 0.0 0.0 0.00 1.30 0.00 96 1018.9
20180721024029 58 223 0.0 0.0 0.00 1.30 0.00 96 1018.9
20180721023513 58 223 0.0 0.0 0.00 1.30 0.00 96 1018.9
20180721023015 58 223 0.0 0.0 0.00 1.30 0.00 96 1018.9
20180721022526 58 223 0.0 0.0 0.00 1.30 0.00 96 1018.9
20180721022030 58 223 0.0 0.0 0.00 1.30 0.00 96 1018.9
20180721021529 58 223 0.0 0.0 0.00 1.30 0.00 95 1018.9
20180721021027 58 223 0.0 0.0 0.00 1.30 0.00 95 1019.0
20180721020530 58 223 0.0 0.0 0.00 1.30 0.00 95 1019.0
20180721020025 58 223 0.0 0.0 0.00 1.46 0.00 95 1019.0
20180721015524 58 223 0.0 0.0 0.00 1.46 0.00 95 1019.1
20180721015022 58 223 0.0 0.0 0.00 1.46 0.00 95 1019.1
20180721014524 58 223 0.0 0.0 0.00 1.46 0.00 95 1019.1
20180721014022 58 223 0.0 0.0 0.00 1.46 0.00 95 1019.3
20180721013527 58 223 0.0 0.0 0.00 1.46 0.00 95 1019.3
20180721013025 58 223 0.0 0.0 0.00 1.46 0.00 95 1019.3
20180721012527 59 223 0.0 0.0 0.00 1.46 0.00 95 1019.6
20180721012025 59 223 0.0 0.0 0.00 1.46 0.00 95 1019.6
20180721011530 59 223 0.0 0.0 0.00 1.46 0.00 95 1019.6
20180721011028 59 223 0.0 0.0 0.00 1.46 0.00 95 1019.6
20180721010530 59 223 0.0 0.0 0.00 1.46 0.00 95 1019.6
20180721010023 59 223 0.0 0.0 0.00 1.50 0.00 95 1019.6
20180721005526 59 223 0.0 0.0 0.00 1.50 0.00 94 1019.6
20180721005024 59 223 0.0 0.0 0.00 1.50 0.00 94 1019.6
20180721004525 59 223 0.0 0.0 0.00 1.50 0.00 94 1019.6
20180721004030 59 223 0.0 0.0 0.00 1.50 0.00 94 1019.8
20180721003528 59 223 0.0 0.0 0.00 1.50 0.00 94 1019.8
20180721003030 59 223 0.0 0.0 0.00 1.50 0.00 94 1019.8
20180721002533 60 223 0.0 0.0 0.00 1.50 0.00 94 1019.9
20180721002015 60 223 0.0 0.0 0.00 1.50 0.00 94 1019.9
20180721001519 60 223 0.0 0.0 0.00 1.50 0.00 94 1019.9
20180721001024 60 223 0.0 0.0 0.00 1.50 0.00 94 1020.1
20180721000522 60 223 0.0 0.0 0.00 1.50 0.00 94 1020.1
20180721000023 60 223 0.0 0.0 0.00 1.54 0.30 93 1020.1
20180720235521 60 223 0.0 0.0 0.00 1.54 0.30 93 1020.1
20180720235017 60 223 0.0 0.0 0.00 1.54 0.30 93 1020.1
20180720234521 60 223 0.0 0.0 0.00 1.54 0.30 93 1020.1
20180720234023 61 223 0.0 0.0 0.00 1.54 0.30 93 1020.1
20180720233524 61 223 0.0 0.0 0.00 1.54 0.30 93 1020.1
20180720233023 61 223 0.0 0.0 0.00 1.54 0.30 93 1020.1
20180720232527 61 223 0.0 0.0 0.00 1.54 0.30 93 1020.1
20180720232026 61 223 0.0 0.0 0.00 1.54 0.30 93 1020.1
20180720231526 61 223 0.0 0.0 0.00 1.54 0.30 93 1020.1
20180720231025 61 223 0.0 0.0 0.00 1.54 0.30 93 1020.2
20180720230524 61 223 0.0 0.0 0.00 1.54 0.30 93 1020.2
20180720230024 61 223 0.0 0.0 0.00 1.57 0.30 93 1020.2
20180720225529 62 223 0.0 0.0 0.00 1.57 0.30 92 1020.2
20180720225026 62 223 0.0 0.0 0.00 1.57 0.30 92 1020.2
20180720224528 62 223 0.0 0.0 0.00 1.57 0.30 92 1020.2
20180720224018 62 223 0.0 0.0 0.00 1.57 0.30 92 1020.2
20180720223517 62 223 0.0 0.0 0.00 1.57 0.30 92 1020.2
20180720223018 62 223 0.0 0.0 0.00 1.57 0.30 92 1020.3
20180720222523 62 223 0.0 0.0 0.00 1.57 0.30 92 1020.3
20180720222020 63 223 0.0 0.0 0.00 1.57 0.30 91 1020.3
20180720221516 63 223 0.0 0.0 0.00 1.57 0.30 91 1020.5
20180720221020 63 223 0.0 0.0 0.00 1.57 0.30 91 1020.5
20180720220517 63 223 0.0 0.0 0.00 1.57 0.30 91 1020.5
20180720220016 64 223 0.0 0.0 0.00 1.57 0.30 91 1020.6
20180720215516 64 223 0.0 0.0 0.00 1.57 0.30 91 1020.6
20180720215035 64 223 0.0 0.0 0.00 1.57 0.30 90 1020.6
20180720214535 64 223 0.0 0.0 0.00 1.57 0.30 90 1020.6
20180720214032 64 223 0.0 0.0 0.00 1.57 0.30 91 1020.6
20180720213530 64 223 0.0 0.0 0.00 1.57 0.30 91 1020.6
20180720213027 64 223 0.0 0.0 0.00 1.57 0.30 91 1020.6
20180720212526 64 223 0.0 0.0 0.00 1.57 0.30 90 1020.6
20180720212031 65 223 0.0 2.0 0.00 1.57 0.30 90 1020.6
20180720211528 65 223 0.0 2.0 0.00 1.57 0.30 90 1020.6
20180720211027 65 223 0.0 2.0 0.00 1.57 0.30 90 1020.6
20180720210526 65 223 0.0 2.0 0.00 1.57 0.30 90 1020.6
20180720210019 65 223 0.0 3.0 0.00 1.57 0.30 90 1020.6
20180720205516 65 223 0.0 3.0 0.00 1.57 0.30 90 1020.6
20180720205017 65 223 0.0 2.0 0.00 1.57 0.30 90 1020.6
20180720204518 65 223 0.0 1.0 0.00 1.57 0.30 90 1020.5
20180720204017 65 223 0.0 3.0 0.00 1.57 0.30 90 1020.5
20180720203535 66 223 0.0 3.0 0.00 1.57 0.30 89 1020.5
20180720203030 66 223 0.0 2.0 0.00 1.57 0.30 89 1020.5
20180720202532 66 223 0.0 2.0 0.00 1.57 0.30 89 1020.4
20180720202030 66 223 0.0 3.0 0.00 1.57 0.30 89 1020.4
20180720201530 66 223 0.0 3.0 0.00 1.57 0.30 89 1020.4
20180720201020 66 223 0.0 4.0 0.00 1.57 0.30 89 1020.2
20180720200518 66 223 0.0 1.0 0.00 1.57 0.30 88 1020.2
20180720200018 67 223 0.0 0.0 0.00 1.65 0.30 88 1020.1
20180720195517 67 223 0.0 0.0 0.00 1.65 0.30 88 1020.1
20180720195032 67 223 0.0 0.0 0.00 1.65 0.30 88 1020.1
20180720194517 67 223 0.0 0.0 0.00 1.65 0.30 88 1020.1
20180720194033 67 223 0.0 0.0 0.00 1.65 0.30 87 1020.1